Tracking 28790 objects as of 18-Apr-2024
HD Live streaming from Space Station
objects crossing your sky now

THORAD DELTA 1 DEB

Track THORAD DELTA 1 DEB now!
10-day predictions


NORAD ID: 8141
Int'l Code: 1974-089K
Perigee: 1,458.8 km
Apogee: 1,600.3 km
Inclination: 101.4 °
Period: 116.5 minutes
Semi major axis: 7900 km
RCS: 0.0788 m2 (small)
Launch date: November 15, 1974
Source: United States (US)
Launch site: AIR FORCE WESTERN TEST RANGE (AFWTR)

Note: This is SATELLITE DEBRIS
Your satellite tracking list
Your tracking list is empty




NASA's NSSDC Master Catalog

Two Line Element Set (TLE):
1  8141U 74089K   24109.49228823  .00000054  00000-0  73209-3 0  9999
2  8141 101.4172 326.6480 0089528 127.8997 298.9664 12.36281403230128
Source of the keplerian elements: AFSPC